Overview Statistics Trail Chart Weather Telemetry Raw packets
 

This is the latest recevied weather packets stored in our database for station/object N9BLE. If no packets are shown the sender has not sent any weather packets the latest 10 day(s).

<< 89 90 91 92 93 94 95 >>
Time Temp. Humidity Pressure Rain* Wind** Luminosity Snow
1777379967 9.44° C 85% 1014.9 hPa 0 mm - 32 W/m² -
1777379663 10° C 85% 1014.8 hPa 0 mm - 42 W/m² -
1777379359 10° C 84% 1014.6 hPa 0 mm - 48 W/m² -
1777379055 9.44° C 83% 1014.3 hPa 0 mm - 46 W/m² -
1777378749 9.44° C 83% 1014.3 hPa 0 mm - 51 W/m² -
1777378447 9.44° C 83% 1014.1 hPa 0 mm - 52 W/m² -
1777378142 9.44° C 85% 1014 hPa 0 mm - 47 W/m² -
1777377841 9.44° C 86% 1013.8 hPa 0 mm - 31 W/m² -
1777377541 9.44° C 86% 1013.8 hPa 0 mm - 21 W/m² -
1777377235 9.44° C 85% 1013.8 hPa 0 mm - 25 W/m² -
1777376934 9.44° C 85% 1013.7 hPa 0 mm - 14 W/m² -
1777376630 9.44° C 85% 1013.8 hPa 0 mm - 15 W/m² -
1777376328 9.44° C 85% 1013.5 hPa 0 mm - 14 W/m² -
1777376023 9.44° C 85% 1013.3 hPa 0 mm - 12 W/m² -
1777375722 9.44° C 86% 1013.1 hPa 0 mm - 10 W/m² -
1777375418 9.44° C 87% 1013.3 hPa 0 mm - 8 W/m² -
1777375115 9.44° C 87% 1013.1 hPa 0 mm - 5 W/m² -
1777374814 9.44° C 88% 1012.9 hPa 0 mm - 3 W/m² -
1777374511 9.44° C 89% 1012.8 hPa 0 mm - 2 W/m² -
1777374208 9.44° C 89% 1012.8 hPa 0 mm - 2 W/m² -
1777373903 9.44° C 89% 1012.7 hPa 0 mm - 1 W/m² -
1777373601 9.44° C 89% 1012.7 hPa 0 mm - 1 W/m² -
1777373297 9.44° C 88% 1012.8 hPa 0 mm - 0 W/m² -
1777372992 10° C 87% 1012.7 hPa 0 mm - 0 W/m² -
1777372688 10° C 87% 1012.4 hPa 0 mm - 0 W/m² -

* Rain latest hour (hover to see other rain measurements)
** Current wind speed in m/s (hover to see current wind gust speed)